Find Starlink 33687

NORAD ID: 63485 Int'l Des: 2025-070 Owner: SPXS Country: US Constellation: starlink operational
LEOCIRCULAR

Live-Position

3D-Globus wird geladen...

Über Starlink 33687

Beschreibung wird geladen...

Nächste Überflüge

Passes for default location (London). Set your location on the main map for personalized predictions.

Höhenverlauf

Loading altitude history...

Zweizeiliger Elementsatz

1 63485U 25070AB 26119.00036185 .00010756 00000-0 39980-3 0 9993
2 63485 43.0027 335.3666 0001566 269.3063 90.7609 15.27580893 60671
Epoch: 29. Apr. 2026 • Age: 46 hours

Aktueller Status

Höhe 488.9 km
Geschwindigkeit 7.62 km/s
Subsatellitenpunkt -25.87°S, 20.41°W
Startdatum 6. Apr. 2025
Alter 1 years
Typ internet

Technische Details

Klassifizierung Payload
Masse 575.00 kg
Trockenmasse 530.00 kg
Gesamtmasse 575.00 kg
Länge 0.30 m
Durchmesser 4.10 m
Spannweite 29.00 m
Form Box + pan
Hersteller SPXS
Bus-Typ Starlink V2MO
Phasenstatus In Orbit
Besitzer/Staat SPXS/US

Most Searched